Overview Statistics Trail Chart Weather Telemetry Raw packets
 

This is the latest recevied weather packets stored in our database for station/object SV9TNF-55. If no packets are shown the sender has not sent any weather packets the latest 10 day(s).

<< 46 47 48 49 50 51 52 >>
Time Temp. Humidity Pressure Rain* Wind** Luminosity Snow
1787948191 22.22° C 59% 1015.3 hPa 0 mm 2.24 m/s, 270° - -
1787947591 22.22° C 59% 1015.4 hPa 0 mm 1.34 m/s, 270° - -
1787946991 22.22° C 59% 1015.4 hPa 0 mm 1.34 m/s, 270° - -
1787946392 22.22° C 58% 1015.5 hPa 0 mm 1.79 m/s, 270° - -
1787945791 22.22° C 58% 1015.6 hPa 0 mm 2.24 m/s, 270° - -
1787945191 22.22° C 57% 1015.5 hPa 0 mm 2.24 m/s, 270° - -
1787944591 22.78° C 57% 1015.5 hPa 0 mm 2.24 m/s, 292° - -
1787943991 22.78° C 56% 1015.5 hPa 0 mm 1.79 m/s, 270° - -
1787943391 22.22° C 57% 1015.5 hPa 0 mm 2.24 m/s, 292° - -
1787942791 22.22° C 56% 1015.4 hPa 0 mm 2.24 m/s, 292° - -
1787942192 22.78° C 55% 1015.3 hPa 0 mm 1.79 m/s, 315° - -
1787941591 22.78° C 55% 1015.2 hPa 0 mm 1.79 m/s, 292° - -
1787940990 22.78° C 54% 1015.1 hPa 0 mm 2.68 m/s, 270° - -
1787940391 22.78° C 54% 1014.9 hPa 0 mm 2.24 m/s, 270° - -
1787939790 22.78° C 52% 1014.8 hPa 0 mm 2.68 m/s, 270° - -
1787939190 22.78° C 52% 1014.6 hPa 0 mm 1.79 m/s, 292° - -
1787938590 23.33° C 50% 1014.6 hPa 0 mm 1.79 m/s, 292° - -
1787937990 23.33° C 49% 1014.6 hPa 0 mm 2.24 m/s, 270° - -
1787937390 23.33° C 48% 1014.3 hPa 0 mm 3.13 m/s, 292° - -
1787936790 23.33° C 49% 1014.3 hPa 0 mm 3.58 m/s, 292° - -
1787936190 23.33° C 49% 1014.3 hPa 0 mm 2.68 m/s, 292° - -
1787935589 23.33° C 49% 1014.3 hPa 0 mm 2.68 m/s, 292° - -
1787934990 23.89° C 49% 1014.3 hPa 0 mm 2.68 m/s, 292° - -
1787934389 23.89° C 47% 1014.3 hPa 0 mm 2.68 m/s, 270° - -
1787933789 23.89° C 48% 1014.5 hPa 0 mm 2.68 m/s, 292° - -

* Rain latest hour (hover to see other rain measurements)
** Current wind speed in m/s (hover to see current wind gust speed)